MPEC 2005-C30 : 2005 CC37

The following Minor Planet Electronic Circular may be linked-to from your own Web pages, but must not otherwise be redistributed electronically.


Read MPEC 2005-C29 Read MPEC 2005-C31


M.P.E.C. 2005-C30                                Issued 2005 Feb. 7, 21:54 UT

     The Minor Planet Electronic Circulars contain information on unusual
         minor planets and routine data on comets.  They are published
   on behalf of Commission 20 of the International Astronomical Union by the
          Minor Planet Center, Smithsonian Astrophysical Observatory,
                          Cambridge, MA 02138, U.S.A.

                  Supported in part by the Brinson Foundation
             Prepared using the Tamkin Foundation Computer Network

                              MPC@CFA.HARVARD.EDU
          URL http://cfa-www.harvard.edu/iau/mpc.html  ISSN 1523-6714

                                   2005 CC37

Observations:
     K05C37C* C2005 02 06.86339 08 52 10.62 +51 38 54.1          18.6 R EC030106
     K05C37C  C2005 02 06.86911 08 52 15.76 +51 38 33.0          18.8 R EC030106
     K05C37C  C2005 02 06.87492 08 52 21.10 +51 38 11.8          18.9 R EC030106
     K05C37C  C2005 02 06.91749 08 52 58.70 +51 35 33.3          18.7 R EC030106
     K05C37C  C2005 02 06.92654 08 53 06.76 +51 34 59.2          18.6 R EC030106
     K05C37C  C2005 02 06.96330 08 53 40.93 +51 32 27.0                 EC030J95
     K05C37C  C2005 02 06.96911 08 53 46.06 +51 32 04.9                 EC030J95
     K05C37C  C2005 02 06.97838 08 53 54.19 +51 31 29.7          18.1 R EC030J95
     K05C37C  C2005 02 07.01736 08 54 28.36 +51 28 58.9                 EC030J95
     K05C37C  C2005 02 07.01737 08 54 36.78 +51 28 43.6          18.1 R EC030932
     K05C37C  C2005 02 07.02125 08 54 31.70 +51 28 43.9                 EC030J95
     K05C37C  C2005 02 07.02126 08 54 40.26 +51 28 29.6          18.0 R EC030932
     K05C37C  C2005 02 07.02500 08 54 34.96 +51 28 29.1          18.1 R EC030J95
     K05C37C  C2005 02 07.02501 08 54 43.59 +51 28 16.6          18.0 R EC030932
     K05C37C  C2005 02 07.08087 08 55 21.61 +51 24 40.7          18.7 R EC030118
     K05C37C  C2005 02 07.08192 08 55 22.53 +51 24 36.1          18.5 R EC030118
     K05C37C  C2005 02 07.08297 08 55 23.45 +51 24 31.8          18.2 R EC030118
     K05C37C  C2005 02 07.08403 08 55 24.49 +51 24 26.9          18.8 R EC030118
     K05C37C  C2005 02 07.33091 08 59 07.66 +51 09 14.7          17.8 R EC030711
     K05C37C  C2005 02 07.33497 08 59 10.97 +51 08 58.0          18.2 R EC030711
     K05C37C  C2005 02 07.33912 08 59 14.40 +51 08 40.7          17.9 R EC030711
     K05C37C  C2005 02 07.83731 09 06 20.53 +50 35 37.6          18.9 V EC030198
     K05C37C  C2005 02 07.83789 09 06 20.97 +50 35 35.4          18.9 V EC030198
     K05C37C  C2005 02 07.83942 09 06 22.15 +50 35 29.9          18.8 V EC030198
     K05C37C  C2005 02 07.83998 09 06 22.59 +50 35 27.9          18.8 V EC030198
     K05C37C  C2005 02 07.84055 09 06 23.03 +50 35 25.8          18.9 V EC030198
     K05C37C  C2005 02 07.84340 09 06 25.22 +50 35 15.5          18.8 V EC030198

Observer details:
106 Crni Vrh.  Observers S. Maticic, H. Mikuz.  0.60-m f/3.3 Deltagraph + CCD.
118 Modra.  Observers S. Gajdos, J. Vilagi.  0.6-m f/5.5 reflector + CCD.
198 Wildberg.  Observer R. Apitzsch.  0.35-m f/4.2 reflector + CCD.
711 McDonald Observatory.  Observer J. G. Ries.  0.76-m reflector + CCD
    + prime-focus corrector.
932 John J. McCarthy Obs., New Milford.  Observers M. Robson, L. McCusker.
    Measurer M. Robson.  0.4-m f/7.3 Schmidt-Cassegrain + CCD.
J95 Great Shefford.  Observer P. Birtwhistle.  0.30-m f/6.3 Schmidt-Cassegrain
    + CCD.

Orbital elements:
2005 CC37
Epoch 2005 Jan. 30.0 TT = JDT 2453400.5                 MPC
M   7.06279              (2000.0)            P               Q
n   0.29864480     Peri.  345.60259     -0.15415593     -0.98319740
a   2.2166617      Node   113.19008     +0.91671008     -0.17924069
e   0.5607859      Incl.    6.10570     +0.36861712     +0.03457799
P   3.30           H   22.6           G   0.15           U   7
Residuals in seconds of arc
050206 106  0.5-  0.0     050207 932  0.1-  0.0     050207 711 (7.0+  3.0-)
050206 106  0.3-  0.1-    050207 J95  0.2-  0.1+    050207 711 (6.9+  3.4-)
050206 106  1.1+  0.0     050207 932  0.0   0.3-    050207 711 (7.2+  3.9-)
050206 106  0.4-  0.2+    050207 J95  0.3-  0.0     050207 198  0.2+  0.0
050206 106  0.3+  0.3+    050207 932  0.1-  0.0     050207 198  0.1+  0.1-
050206 J95  0.0   0.0     050207 118  0.0   0.1-    050207 198  0.0   0.0
050206 J95  0.1+  0.0     050207 118  0.1-  0.3-    050207 198  0.0   0.1+
050206 J95  0.1-  0.1+    050207 118  0.1-  0.3-    050207 198  0.0   0.1+
050207 J95  0.3+  0.1-    050207 118  0.9+  0.8-    050207 198  0.3-  0.2+

Ephemeris:
2005 CC37                a,e,i = 2.22, 0.56, 6                   q = 0.9736
Date    TT    R. A. (2000) Decl.     Delta      r     Elong.  Phase     V
2005 01 30    05 22.86   +52 21.4    0.058    1.021   126.9    50.5    18.3
2005 02 09    09 20.62   +49 20.4    0.094    1.066   145.3    31.8    19.0
2005 02 19    10 23.17   +40 30.8    0.150    1.121   150.7    25.6    19.9
2005 03 01    10 44.26   +34 52.6    0.215    1.186   152.8    22.5    20.7
2005 03 11    10 54.08   +30 45.0    0.289    1.256   152.1    21.7    21.5

Timothy B. Spahr             (C) Copyright 2005 MPC           M.P.E.C. 2005-C30

Read MPEC 2005-C29 Read MPEC 2005-C31


Our Web policy. Index to the CBAT/MPC/ICQ pages.

MPC